Location: Newmarket
(52.2500°N, 0.4167°E)
Time: 23:59:50
(UTC+00:00)

Daily predictions for brighter satellites

Satellite Brightness Start Highest point End
(mag) Time Altitude Azimuth Time Altitude Azimuth Time Altitude Azimuth
Cosmos 2279 Rocket 4.5 16:19:06 10° SSE 16:24:49 40° E 16:30:34 10° NNE
Cosmos 1570 Rocket 4.0 16:19:55 10° NNW 16:25:17 73° ENE 16:30:36 10° SSE
Cosmos 1092 Rocket 4.0 16:19:57 10° N 16:26:11 85° E 16:32:19 10° S
Cosmos 836 Rocket 4.5 16:23:20 10° NNW 16:28:35 70° ENE 16:33:49 10° SSE
SMAP 3.5 16:27:20 10° SE 16:31:40 40° ENE 16:36:01 10° N
Cosmos 1656 4.4 16:26:51 10° S 16:31:58 37° ESE 16:37:09 10° NE
Cosmos 1867 3.9 16:29:09 10° NW 16:34:26 47° NE 16:39:41 10° ESE
NOSS 2-2 (C) 2.9 16:32:00 10° SSW 16:35:10 55° SE 16:38:05 10° NE
Cosmos 2228 3.1 16:31:42 10° S 16:35:51 57° E 16:40:02 10° NNE
YAOGAN 1 4.3 16:34:02 10° E 16:35:54 13° NE 16:37:45 10° NNE
Landsat 7 4.3 16:32:57 10° SE 16:37:10 35° ENE 16:41:25 10° N
Cosmos 2297 Rocket 2.2 16:33:01 10° NNW 16:38:40 63° NE 16:44:17 10° SE
USA 290 2.7 16:35:49 10° NNW 16:38:55 39° ENE 16:42:01 10° SE
Cosmos 773 Rocket 4.0 16:36:54 10° NNW 16:42:07 73° ENE 16:47:21 10° SSE
USA 215 3.5 16:35:59 10° ENE 16:42:25 61° N 16:48:52 10° W
Cosmos 2034 Rocket 4.4 16:37:38 10° SSW 16:43:56 69° WNW 16:50:20 10° N
ATLAS CENTAUR R/B 0.8 16:42:27 10° NW 16:45:44 78° SW 16:48:54 10° SE
CZ-4C R/B 2.9 16:39:47 10° NW 16:46:18 69° NE 16:54:35 10° ESE
Cosmos 1782 3.1 16:42:58 10° SSE 16:46:18 37° E 16:49:40 10° NNE
JB-3 4.3 16:43:25 10° N 16:47:06 76° WNW 16:50:44 10° SSW
Cosmos 1607 3.9 16:41:31 10° NW 16:47:46 77° NE 16:54:04 10° SE
Cosmos 1733 1.2 16:47:23 10° N 16:48:57 44° ENE 16:50:30 10° SSE
CZ-2D R/B 3.5 16:50:05 10° SE 16:52:53 31° ENE 16:55:44 10° N
Cosmos 2219 4.3 16:50:19 10° NNW 16:55:00 25° NE 16:59:37 10° E
Lacrosse 4 Rocket 2.0 16:51:05 10° SW 16:55:01 49° NW 16:58:57 10° NNE
Cosmos 1825 Rocket 4.4 16:52:00 10° N 16:55:46 28° ENE 16:59:30 10° SE
IRS-P3 4.5 16:51:06 10° SE 16:56:03 41° ENE 17:01:01 10° N
ARIANE 5 R/B 2.6 16:52:47 10° SE 16:57:43 55° ENE 17:02:44 10° N
Meteor 1-27 4.4 16:52:06 10° SSW 16:57:55 84° WNW 17:03:43 10° NNE
Iridium 51 3.8 16:54:56 10° S 16:58:04 79° W 17:01:17 10° N
Cosmos 2266 Rocket 4.1 16:52:11 10° N 16:58:13 51° ENE 17:04:07 10° SSE
Cosmos 1758 Rocket 3.4 16:53:52 10° N 16:58:13 78° ENE 17:02:29 10° SSE
Cosmos 1315 Rocket 3.1 16:55:32 10° SSW 16:59:20 64° WNW 17:03:10 10° N
Cosmos 2208 Rocket 4.1 16:56:37 10° NNW 17:01:49 82° WSW 17:07:00 10° SSE
Cosmos 2098 Rocket 3.2 16:58:44 10° S 17:02:45 53° E 17:07:29 10° NNE
Cosmos 2151 3.0 16:59:28 10° N 17:03:33 54° ENE 17:07:38 10° SSE
Cosmos 1743 2.2 17:01:02 10° N 17:04:18 64° ENE 17:07:30 10° SSE
Cosmos 1980 Rocket 3.9 17:05:12 10° ESE 17:07:37 13° E 17:08:01 13° E
SPOT 1/Viking Rocket 4.1 17:03:05 10° SE 17:07:46 35° ENE 17:12:28 10° N
Cosmos 1844 Rocket 4.3 17:05:41 10° NNW 17:09:08 16° NNE 17:10:59 14° NE
SL-08 ROCKET BODY 4.4 17:05:50 10° N 17:11:48 88° W 17:17:49 10° S
SL-16 R/B 2.7 17:09:04 10° NNE 17:15:20 81° WNW 17:21:32 10° SSW
Cosmos 2263 Rocket 2.7 17:11:36 10° NNW 17:16:55 39° NE 17:22:13 10° ESE
NOSS 3-2 (A) 3.2 17:14:00 10° SW 17:19:08 85° SE 17:24:05 17° NE
NOSS 3-2 (C) 3.6 17:14:32 10° S 17:19:17 42° ESE 17:23:02 19° ENE
IGS 5A 4.4 17:16:57 10° S 17:20:47 49° W 17:24:40 10° NNW
CORIOLIS 4.3 17:15:30 10° SSE 17:20:50 79° WSW 17:26:13 10° NNW
Cosmos 1626 Rocket 4.3 17:17:14 10° NNW 17:21:28 55° W 17:25:40 10° S
Cosmos 2084 4.4 17:18:42 10° W 17:22:37 37° NNW 17:25:23 17° NNE
Cosmos 783 Rocket 4.4 17:17:34 10° NNW 17:22:55 75° ENE 17:28:12 10° SSE
GEOS 3 Rocket 3.7 17:19:36 17° NE 17:23:54 73° SE 17:29:15 10° SW
MOS 1 Rocket 3.4 17:20:03 10° SSE 17:24:54 66° ENE 17:30:04 10° N
BREEZE M DEB (TANK) 3.7 17:23:21 10° SSW 17:24:54 16° SSE 17:25:20 15° SE
Cosmos 1076 Rocket 4.1 17:21:16 10° N 17:25:12 34° ENE 17:29:08 10° SE
AQUARIUS 4.0 17:23:29 10° SSE 17:27:53 72° ENE 17:32:18 10° N
Cosmos 1933 3.6 17:25:16 10° SSE 17:28:51 40° E 17:30:45 23° NE
Cosmos 2084 Rocket 3.6 17:25:30 10° NW 17:29:42 74° SW 17:33:54 10° SE
Cosmos 2227 Rocket 2.1 17:24:14 10° NNW 17:29:53 68° NE 17:35:30 10° SE
SJ-12 3.6 17:26:58 10° SSE 17:30:45 88° ENE 17:34:34 10° NNW
Cosmos 1538 Rocket 4.4 17:25:52 10° NNW 17:30:50 40° NE 17:35:50 10° SE
BlueWalker 3 4.5 17:28:30 10° W 17:31:12 20° SW 17:33:52 10° S
Meteor 1-28 Rocket 3.8 17:28:46 10° N 17:32:03 49° WNW 17:35:16 10° SSW
Cosmos 1606 Rocket 3.9 17:28:12 10° SSE 17:32:21 43° E 17:35:23 17° NNE
Cosmos 1900 4.4 17:27:17 10° NW 17:32:23 85° SW 17:37:21 10° SE
Cosmos 2360 4.2 17:27:11 10° SSW 17:32:53 74° ESE 17:37:25 17° NE
Thor Agena Rocket 4.4 17:29:05 10° S 17:34:11 54° WSW 17:39:17 10° NNW
Cosmos 2369 Rocket 4.0 17:31:13 10° W 17:35:36 22° NW 17:40:02 10° NNE
Cosmos 1943 Rocket 4.3 17:35:23 10° NNW 17:36:50 11° N 17:38:17 10° N
PSLV R/B 4.0 17:36:04 24° ESE 17:37:38 32° ENE 17:41:17 10° N
COSMO-SKYMED 1 3.9 17:39:14 20° ESE 17:39:14 20° ESE 17:41:22 10° SSE
CZ-2D R/B 3.7 17:34:22 10° SE 17:38:21 45° ENE 17:42:20 10° N
NOSS 2-2 (D) 2.8 17:35:50 10° SW 17:39:02 69° NW 17:40:03 37° NNE
Cosmos 1544 Rocket 4.2 17:37:09 10° SSW 17:41:29 57° WNW 17:45:52 10° N
SL-19 R/B 4.4 17:37:05 10° SE 17:42:12 46° ENE 17:47:37 10° N
Resurs 1-3 3.9 17:38:22 10° SE 17:42:23 41° ENE 17:46:27 10° N
BREEZE-M DEB (TANK) 3.7 17:39:17 10° W 17:42:25 65° S 17:48:33 18° ESE
Cosmos 1503 Rocket 3.9 17:37:26 10° SSW 17:42:37 66° ESE 17:46:10 20° NNE
IRS-1C 4.5 17:40:43 10° S 17:46:00 67° WSW 17:51:20 10° NNW
Cosmos 2278 Rocket 4.3 17:45:03 10° NNW 17:46:51 11° N 17:48:40 10° NNE
Cosmos 1697 Rocket 2.9 17:42:41 10° S 17:48:04 50° ESE 17:50:45 28° NE
Okean 1-7 Rocket 3.7 17:44:11 10° NNW 17:48:36 77° W 17:52:57 10° S
Lacrosse 5 rocket 1.6 17:45:26 10° W 17:49:02 46° NNW 17:49:58 37° NNE
Cosmos 1354 Rocket 4.1 17:45:46 10° S 17:50:54 56° ESE 17:53:34 27° NE
BREEZE-M DEB (TANK) 3.7 17:48:19 10° W 17:51:34 87° N 17:57:03 24° E
Cosmos 1461 2.7 17:49:38 10° SSW 17:53:30 61° SE 17:54:17 48° ENE
NOSS 2-2 (E) 2.9 17:50:44 10° WSW 17:53:55 62° NW 17:54:24 51° N
Spot 4 Rocket 3.9 17:51:09 10° SSE 17:56:10 63° ENE 18:01:15 10° N
IRAS Rocket 4.2 17:52:04 10° SE 17:57:25 58° ENE 18:02:48 10° NNW
Cosmos 1726 Rocket 3.7 17:53:03 10° S 17:57:37 58° E 17:59:49 29° NNE
Cosmos 1655 Rocket 3.9 17:53:20 10° N 17:59:37 76° ENE 18:05:50 10° SSE
SKYMED 2 3.6 17:59:36 40° NE 18:00:47 54° E 18:05:03 10° S
Cosmos 1777 Rocket 4.0 17:56:28 10° SSW 18:01:44 80° WNW 18:05:19 21° NNE
Gbstr 26 Del rocket 3.8 17:59:09 10° SSW 18:02:35 29° SSE 18:02:38 29° SSE
Radarsat Rocket 4.5 17:56:55 10° SSE 18:05:01 72° ENE 18:12:13 10° NNW
NOAA 15 4.5 18:01:26 10° SSE 18:06:43 77° ENE 18:12:01 10° NNW
Meteor 2-10 4.0 18:01:33 10° N 18:06:50 61° ENE 18:12:15 10° SSE
CENTAUR R/B 3.5 18:02:09 10° W 18:08:08 44° NNW 18:12:28 23° NE
YAOGAN 1 2.3 18:06:47 10° SSE 18:11:02 77° ENE 18:15:18 10° NNW
Cosmos 923 Rocket 4.5 18:08:11 10° NNW 18:12:39 39° NE 18:12:39 39° NE
Cosmos 1656 4.5 18:10:01 10° SW 18:15:28 49° NW 18:19:20 19° NNE
Cosmos 2082 3.8 18:10:15 10° NNW 18:15:51 54° NE 18:17:04 45° E
USA 281 4.2 18:17:15 27° NE 18:17:15 27° NE 18:22:24 10° NNW
USA 238 DEB 3.9 18:13:49 10° S 18:19:26 40° ESE 18:19:57 39° ESE
USA 238 3.9 18:13:56 10° S 18:19:33 39° ESE 18:20:02 39° ESE
SJ-7 4.1 18:19:53 80° NNW 18:19:53 80° NNW 18:23:28 10° NNW
Resurs 01 Rocket 3.7 18:25:00 15° N 18:25:00 15° N 18:25:51 10° N
Cosmos 2297 Rocket 4.2 18:17:35 10° NW 18:22:20 28° WSW 18:27:03 10° SSW
Cosmos 1953 Rocket 3.6 18:18:28 10° NNW 18:22:55 78° W 18:27:21 10° S
USA 215 3.3 18:22:49 42° E 18:25:06 67° NNE 18:31:37 10° WNW
Aureole 1 Rocket 4.2 18:24:40 10° S 18:27:16 33° SSE 18:27:16 33° SSE
Lacrosse 4 Rocket 3.7 18:31:36 10° WNW 18:33:47 14° NNW 18:34:34 13° NNW
CZ-4C R/B 4.0 18:28:03 10° NW 18:34:39 44° WSW 18:42:38 10° S
USA 81 4.0 18:31:13 10° N 18:36:31 82° W 18:41:46 10° S
Cosmos 990 Rocket 4.0 18:33:21 10° SSW 18:38:29 77° WNW 18:39:47 51° N
Cosmos 2219 3.1 18:34:11 10° NNW 18:39:57 87° ENE 18:41:35 50° SSE
NOAA 6 4.0 18:36:19 10° SSE 18:41:26 83° WSW 18:46:34 10° NNW
Cosmos 1680 Rocket 4.5 18:41:18 10° NNW 18:44:28 34° N 18:44:28 34° N
Cosmos 1980 Rocket 2.3 18:44:56 10° SSW 18:49:48 61° SSE 18:49:48 61° SSE
Nadezhda 2 Rocket 4.3 18:47:44 10° N 18:53:55 88° WSW 19:00:02 10° S
Cosmos 2058 Rocket 4.4 18:49:31 10° SSW 18:51:55 31° SSW 18:51:55 31° SSW
Cosmos 1844 Rocket 3.7 18:49:06 10° NNW 18:52:37 33° N 18:52:37 33° N
Cosmos 2263 Rocket 3.0 18:55:32 10° NW 19:01:00 50° WSW 19:04:58 18° S
Cosmos 1553 Rocket 3.9 19:01:03 10° S 19:06:49 79° S 19:06:49 79° S
NOSS 3-2 (C) 3.7 19:04:42 10° WSW 19:09:57 54° NNW 19:10:27 53° NNW
Meteor 2-11 Rocket 4.3 19:03:51 10° NNW 19:09:57 86° NW 19:09:57 86° NW
NOSS 3-2 (A) 4.4 19:05:25 10° W 19:10:36 38° NNW 19:11:26 36° N
Cosmos 2227 Rocket 4.2 19:08:54 10° NW 19:13:27 26° WSW 19:18:00 10° SSW
COSMO-SKYMED 1 4.4 19:15:34 25° SW 19:15:34 25° SW 19:17:29 10° SW
Lacrosse 5 rocket 4.1 19:23:03 10° WNW 19:23:33 13° WNW 19:23:33 13° WNW
Cosmos 1697 Rocket 3.8 19:26:57 10° WSW 19:32:11 38° NW 19:32:29 38° NW
CENTAUR R/B 4.0 19:54:07 10° WNW 19:59:34 35° N 19:59:34 35° N
USA 281 4.4 20:04:07 33° NNW 20:04:07 33° NNW 20:07:28 10° NNW
USA 215 4.0 20:10:10 47° WNW 20:10:10 47° WNW 20:14:43 10° WNW
